Precipitable_Water
1.44 1.48 1.45 1.40 1.40 1.45 1.46 1.50 1.45 1.43 1.41 1.39 1.43 1.43 1.43 1.45 1.44 1.55 1.61 1.66 1.73 1.80 1.77 1.60 1.53 1.50 1.69 1.77 1.62 1.48 1.43 1.44 1.42 1.40 1.36 1.34 1.27 1.22 1.23 1.20 1.18 1.17 1.16
1.25 1.20 1.12 1.04 0.99 0.99 0.99 1.04 1.15 1.23 1.23 1.26 1.30 1.34 1.29 1.28 1.28 1.28 1.35 1.48 1.50 1.55 1.64 1.62 1.56 1.63 1.78 1.73 1.79 1.72 1.62 1.53 1.54 1.51 1.47 1.41 1.33 1.31 1.24 1.21 1.19 1.16 1.15
0.93 0.94 0.95 0.94 0.93 0.90 0.83 0.79 0.75 0.76 0.77 0.81 0.85 0.89 0.94 0.99 0.97 1.01 1.01 1.04 1.18 1.26 1.26 1.37 1.47 1.50 1.69 1.82 1.70 1.77 1.75 1.67 1.61 1.57 1.56 1.52 1.44 1.41 1.35 1.30 1.23 1.20 1.15
0.95 0.95 0.96 0.96 0.99 1.00 0.99 0.98 0.94 0.85 0.79 0.75 0.72 0.70 0.69 0.68 0.64 0.62 0.69 0.79 0.84 0.91 1.07 1.12 1.15 1.30 1.45 1.58 1.68 1.75 1.80 1.77 1.75 1.65 1.62 1.60 1.54 1.50 1.49 1.38 1.34 1.27 1.22
0.94 0.93 0.94 0.97 0.99 0.96 0.96 0.98 0.97 0.98 0.94 0.90 0.85 0.84 0.83 0.78 0.74 0.74 0.66 0.62 0.72 0.78 0.78 0.84 0.96 1.07 1.24 1.41 1.45 1.48 1.60 1.71 1.73 1.77 1.72 1.64 1.63 1.56 1.53 1.50 1.44 1.40 1.32
0.84 0.82 0.81 0.81 0.82 0.80 0.82 0.85 0.85 0.88 0.89 0.92 0.93 0.94 0.91 0.88 0.87 0.88 0.92 0.85 0.72 0.74 0.79 0.83 0.88 0.89 1.04 1.18 1.29 1.41 1.44 1.46 1.54 1.65 1.72 1.79 1.72 1.67 1.62 1.59 1.57 1.52 1.47
0.75 0.74 0.72 0.71 0.72 0.68 0.69 0.72 0.75 0.75 0.79 0.86 0.83 0.84 0.89 0.98 0.96 0.94 0.95 0.91 0.87 0.89 0.87 0.89 0.93 1.05 1.14 1.19 1.30 1.32 1.35 1.42 1.46 1.54 1.60 1.70 1.84 1.76 1.73 1.70 1.66 1.63 1.57
0.73 0.71 0.69 0.67 0.68 0.63 0.59 0.59 0.60 0.58 0.61 0.69 0.66 0.66 0.65 0.75 0.88 0.92 0.99 0.95 0.93 0.99 0.96 0.94 0.97 1.08 1.13 1.14 1.08 1.10 1.14 1.16 1.30 1.44 1.47 1.50 1.61 1.74 1.77 1.75 1.72 1.70 1.65
0.70 0.70 0.70 0.69 0.67 0.65 0.61 0.62 0.60 0.59 0.54 0.60 0.67 0.68 0.62 0.60 0.69 0.81 0.78 0.91 0.93 0.96 1.00 1.03 0.99 0.98 0.98 1.02 1.06 1.03 1.00 1.00 1.08 1.19 1.21 1.30 1.38 1.54 1.62 1.68 1.72 1.73 1.72
0.70 0.71 0.73 0.70 0.68 0.65 0.61 0.63 0.65 0.62 0.60 0.55 0.60 0.67 0.70 0.74 0.67 0.65 0.74 0.76 0.83 0.86 0.89 0.94 0.97 0.96 0.95 0.94 0.96 0.97 0.93 0.92 0.92 0.98 1.03 1.13 1.19 1.25 1.35 1.43 1.53 1.63 1.69
0.75 0.76 0.77 0.76 0.70 0.67 0.63 0.62 0.60 0.60 0.61 0.58 0.58 0.59 0.60 0.59 0.60 0.62 0.59 0.67 0.70 0.76 0.82 0.85 0.88 0.90 0.90 0.90 0.89 0.92 0.90 0.88 0.90 0.89 0.89 0.93 0.99 1.03 1.14 1.22 1.33 1.36 1.54
0.81 0.78 0.74 0.74 0.70 0.62 0.58 0.56 0.57 0.56 0.55 0.55 0.55 0.56 0.54 0.52 0.52 0.57 0.56 0.59 0.59 0.66 0.72 0.73 0.78 0.81 0.81 0.81 0.77 0.75 0.83 0.81 0.80 0.79 0.80 0.75 0.83 0.88 0.94 0.96 1.10 1.28 1.31
0.71 0.62 0.58 0.54 0.49 0.48 0.47 0.47 0.46 0.44 0.44 0.44 0.43 0.44 0.49 0.50 0.51 0.50 0.51 0.51 0.54 0.60 0.59 0.67 0.70 0.71 0.74 0.75 0.75 0.74 0.71 0.70 0.77 0.80 0.79 0.74 0.71 0.71 0.76 0.80 0.87 1.00 1.06
0.56 0.55 0.52 0.50 0.48 0.49 0.49 0.49 0.49 0.47 0.45 0.45 0.45 0.47 0.47 0.46 0.45 0.45 0.45 0.43 0.40 0.45 0.53 0.52 0.59 0.66 0.69 0.71 0.70 0.71 0.68 0.66 0.71 0.70 0.69 0.69 0.63 0.61 0.60 0.62 0.70 0.77 0.85
0.44 0.41 0.41 0.42 0.43 0.44 0.45 0.46 0.49 0.49 0.47 0.47 0.47 0.47 0.48 0.49 0.51 0.51 0.49 0.46 0.42 0.35 0.36 0.45 0.48 0.58 0.65 0.65 0.66 0.68 0.70 0.68 0.65 0.66 0.65 0.65 0.64 0.62 0.60 0.58 0.54 0.53 0.56
0.27 0.27 0.28 0.28 0.28 0.29 0.30 0.33 0.34 0.37 0.38 0.42 0.42 0.45 0.48 0.50 0.50 0.51 0.53 0.51 0.49 0.43 0.36 0.43 0.42 0.48 0.56 0.61 0.63 0.60 0.62 0.65 0.64 0.62 0.61 0.62 0.60 0.58 0.56 0.50 0.46 0.46 0.50
0.15 0.15 0.16 0.16 0.16 0.16 0.18 0.18 0.19 0.20 0.25 0.27 0.32 0.34 0.34 0.40 0.44 0.48 0.47 0.51 0.51 0.50 0.40 0.42 0.46 0.44 0.44 0.45 0.51 0.59 0.58 0.56 0.58 0.57 0.55 0.55 0.56 0.56 0.52 0.47 0.42 0.43 0.46
0.16 0.16 0.17 0.15 0.17 0.18 0.18 0.17 0.17 0.23 0.21 0.21 0.23 0.25 0.26 0.28 0.30 0.31 0.37 0.40 0.43 0.50 0.47 0.42 0.45 0.43 0.37 0.41 0.42 0.42 0.49 0.55 0.53 0.50 0.49 0.48 0.48 0.48 0.49 0.45 0.40 0.40 0.41
0.16 0.16 0.15 0.15 0.19 0.17 0.15 0.17 0.19 0.20 0.21 0.20 0.21 0.21 0.23 0.24 0.23 0.25 0.25 0.24 0.32 0.40 0.45 0.46 0.43 0.50 0.44 0.39 0.38 0.40 0.38 0.40 0.48 0.50 0.46 0.43 0.43 0.43 0.41 0.39 0.37 0.37 0.38
0.15 0.15 0.16 0.17 0.16 0.16 0.19 0.21 0.20 0.19 0.18 0.17 0.19 0.20 0.20 0.22 0.24 0.26 0.27 0.26 0.26 0.29 0.39 0.41 0.43 0.44 0.46 0.44 0.39 0.33 0.32 0.36 0.32 0.39 0.44 0.45 0.43 0.42 0.41 0.40 0.38 0.36 0.34
0.16 0.16 0.15 0.16 0.18 0.19 0.19 0.19 0.21 0.19 0.17 0.17 0.18 0.19 0.21 0.22 0.25 0.26 0.25 0.27 0.25 0.24 0.27 0.35 0.38 0.42 0.42 0.43 0.38 0.37 0.34 0.33 0.31 0.31 0.31 0.36 0.39 0.39 0.39 0.38 0.37 0.36 0.35
0.15 0.14 0.15 0.15 0.16 0.17 0.18 0.19 0.19 0.19 0.19 0.17 0.16 0.16 0.18 0.18 0.19 0.21 0.25 0.23 0.22 0.21 0.20 0.21 0.31 0.35 0.40 0.42 0.43 0.40 0.36 0.32 0.25 0.31 0.27 0.27 0.35 0.35 0.37 0.36 0.35 0.34 0.33
0.14 0.14 0.15 0.17 0.15 0.16 0.18 0.19 0.19 0.17 0.16 0.16 0.17 0.17 0.16 0.16 0.18 0.19 0.19 0.23 0.21 0.20 0.21 0.21 0.23 0.33 0.37 0.41 0.43 0.43 0.37 0.34 0.31 0.32 0.28 0.22 0.29 0.28 0.34 0.35 0.35 0.34 0.33
0.15 0.15 0.16 0.15 0.15 0.16 0.19 0.18 0.18 0.17 0.17 0.15 0.16 0.16 0.17 0.17 0.17 0.18 0.19 0.19 0.18 0.18 0.18 0.19 0.21 0.28 0.36 0.42 0.45 0.46 0.40 0.36 0.36 0.36 0.35 0.22 0.26 0.25 0.29 0.32 0.33 0.33 0.33
0.15 0.15 0.15 0.16 0.16 0.17 0.18 0.18 0.17 0.16 0.14 0.15 0.16 0.16 0.17 0.17 0.16 0.17 0.17 0.16 0.16 0.16 0.18 0.19 0.20 0.24 0.31 0.39 0.46 0.46 0.38 0.34 0.28 0.29 0.33 0.28 0.24 0.24 0.27 0.26 0.30 0.32 0.32
0.15 0.16 0.16 0.17 0.18 0.18 0.19 0.18 0.17 0.15 0.14 0.14 0.15 0.16 0.15 0.16 0.16 0.17 0.18 0.17 0.15 0.14 0.16 0.17 0.19 0.24 0.30 0.35 0.43 0.46 0.42 0.34 0.30 0.26 0.30 0.26 0.25 0.27 0.22 0.26 0.28 0.30 0.32
Wind_Speed
25 23 25 26 26 26 26 26 26 25 25 24 24 26 25 25 25 26 27 26 28 30 29 28 27 32 36 26 25 25 25 24 22 21 19 19 21 20 19 19 19 19 18
20 21 21 21 21 22 24 24 25 27 28 29 28 28 28 27 28 28 28 28 28 28 30 29 27 26 25 24 27 28 28 27 25 24 21 20 22 22 21 21 21 21 20
20 23 23 23 24 26 26 26 27 28 29 30 30 31 30 30 31 31 30 29 29 30 30 30 29 30 29 28 27 28 29 29 28 27 25 24 26 25 24 23 23 22 22
20 20 22 24 26 29 30 31 31 31 31 31 31 31 31 31 32 33 33 33 32 31 31 32 31 30 31 32 31 31 30 30 32 30 29 28 28 28 26 26 26 25 24
21 23 24 26 28 29 31 32 33 34 35 35 35 35 34 34 33 32 33 34 35 35 34 33 32 33 33 33 33 33 33 33 32 33 34 34 32 32 31 29 29 27 26
22 24 25 26 28 30 31 32 33 34 35 37 38 38 39 38 37 36 35 35 36 37 37 37 36 35 35 35 35 36 36 35 34 34 35 37 36 35 33 32 32 30 29
25 27 28 29 30 31 31 31 31 32 32 35 35 38 37 37 38 37 36 35 35 35 35 36 37 37 35 36 35 35 35 36 35 35 34 36 37 38 37 36 35 35 33
28 30 31 31 32 31 31 30 30 30 30 31 31 31 31 33 35 37 38 37 37 38 38 37 36 37 37 36 36 35 35 35 35 36 35 34 34 38 40 39 38 38 35
30 32 32 32 32 31 30 30 30 29 29 30 31 30 30 30 33 33 36 36 38 38 37 38 38 37 37 37 37 38 38 37 37 37 38 37 38 36 35 38 42 41 41
31 32 32 32 32 32 31 31 30 30 30 30 31 30 32 33 31 32 33 35 36 38 39 38 38 37 37 38 37 38 38 39 39 40 40 39 39 39 39 38 37 39 44
31 32 32 32 32 32 32 32 32 32 32 32 32 32 33 33 34 34 34 34 37 36 37 38 39 39 39 39 40 39 40 40 41 40 41 42 41 41 40 41 39 40 39
30 30 31 31 32 32 33 33 34 34 35 35 34 34 34 34 35 35 36 37 38 38 38 38 39 40 41 42 42 42 43 42 42 41 40 40 42 42 42 42 42 39 39
30 30 30 32 33 34 35 35 36 37 37 38 38 38 38 38 38 39 40 40 40 39 39 40 39 39 39 39 40 41 42 42 42 42 41 40 40 41 42 43 44 44 44
30 31 33 35 37 38 39 40 41 41 42 43 43 43 43 43 42 41 41 41 42 42 41 42 40 40 40 39 38 37 37 38 39 40 40 41 40 40 41 42 43 45 46
33 35 37 38 40 41 42 43 44 44 45 46 46 47 47 47 47 47 46 45 44 44 43 42 41 40 40 40 39 39 39 39 40 40 41 42 42 42 42 42 43 45 46
37 38 40 42 43 45 46 47 48 49 50 51 51 52 51 50 51 50 50 50 49 49 48 45 44 44 45 46 46 45 44 44 44 43 43 43 44 44 44 44 44 44 44
38 40 42 44 46 48 49 50 52 53 52 53 52 53 53 52 52 50 50 50 52 52 53 50 48 47 47 47 48 49 48 48 47 46 46 46 46 46 46 45 45 45 45
40 43 45 47 49 50 52 54 55 54 55 55 54 54 54 53 54 54 54 53 52 52 55 55 52 50 49 48 48 49 48 49 49 50 50 49 50 49 48 48 48 47 47
43 45 48 50 51 53 55 54 54 55 55 55 54 54 53 53 54 53 54 55 56 55 53 54 55 52 51 49 49 49 49 49 50 50 50 50 51 50 49 49 49 49 49
45 48 49 52 54 54 54 53 55 55 54 53 52 52 52 52 52 52 52 53 52 54 55 55 53 55 52 50 50 49 49 49 49 49 49 50 51 51 51 52 52 51 51
47 50 53 53 53 53 52 55 53 53 53 53 52 51 50 51 51 50 50 48 49 51 52 53 54 52 52 50 49 48 49 49 50 50 51 50 51 51 51 51 51 51 52
50 52 52 53 53 53 54 54 54 53 52 54 54 54 53 53 52 51 50 50 50 50 51 52 53 55 53 52 50 49 49 48 48 49 50 50 50 51 51 52 53 53 54
51 52 52 52 54 54 55 54 54 55 55 55 54 53 52 51 50 51 51 50 49 49 50 50 52 53 54 53 50 50 49 49 49 49 50 52 52 53 52 53 54 55 55
51 52 52 53 54 54 55 55 56 55 55 55 53 51 49 48 47 47 49 50 49 48 47 47 49 50 52 52 51 51 50 49 48 48 49 51 50 53 53 54 54 55 56
51 52 52 53 54 54 55 55 56 56 57 54 51 49 47 46 45 45 46 47 48 48 46 46 46 48 50 51 50 47 47 46 47 47 47 49 49 51 52 54 54 55 56
51 52 52 53 54 54 54 55 56 56 55 53 50 46 44 42 42 41 42 43 44 44 43 43 43 43 43 48 49 49 45 45 45 44 45 46 46 45 46 48 49 50 51
Wind_Direction
285 284 284 282 280 281 279 280 279 277 278 277 274 273 275 273 270 271 268 270 263 259 261 264 261 258 240 233 240 239 237 238 239 241 241 232 223 224 223 221 220 219 217
288 291 291 291 285 285 286 284 281 279 277 276 276 276 274 272 271 272 270 265 264 263 260 257 259 256 255 250 245 241 239 239 237 236 236 232 224 223 224 224 223 222 221
293 291 291 291 289 288 289 286 285 282 279 277 276 275 274 273 272 271 268 265 264 262 261 260 259 257 254 251 247 245 242 238 236 236 236 233 229 229 228 227 226 225 224
303 300 297 296 293 290 289 286 284 284 281 279 277 275 274 273 271 270 267 265 263 262 260 260 259 256 254 252 251 251 248 245 239 237 236 235 232 231 231 229 228 227 227
306 303 301 300 298 296 294 291 287 283 281 280 278 275 274 273 271 270 269 265 262 261 259 259 259 257 255 253 252 251 249 248 245 241 239 236 234 233 232 230 229 228 228
310 309 307 306 303 300 298 295 292 289 284 281 278 276 273 271 270 268 269 266 262 261 259 259 258 258 255 253 252 251 250 249 248 246 244 240 236 233 232 232 230 229 229
309 309 308 307 305 304 302 299 296 293 289 287 282 279 275 270 267 268 267 265 262 262 261 259 258 256 256 252 252 251 250 249 247 247 244 242 240 236 236 235 232 233 231
308 309 309 307 305 304 303 301 299 295 292 293 288 284 277 273 270 270 265 263 263 263 260 261 259 255 254 252 251 250 250 249 247 244 243 242 241 240 238 237 236 235 233
308 308 308 308 307 306 304 302 300 299 295 293 292 283 281 276 277 269 269 265 263 260 261 261 258 256 254 253 252 251 250 249 247 245 244 243 241 240 239 238 237 236 235
308 309 309 307 306 305 304 303 301 298 296 294 292 286 284 280 277 272 268 268 263 261 259 259 258 256 254 252 253 250 250 249 247 245 245 243 241 241 239 239 239 238 236
309 309 310 309 307 305 304 301 300 299 297 295 292 289 286 282 278 273 271 269 267 262 260 258 256 255 255 254 253 252 250 249 248 247 245 243 242 240 240 239 240 238 238
312 311 312 311 310 307 306 303 300 298 296 294 292 289 286 282 279 277 273 270 267 264 261 259 257 256 256 255 253 252 251 250 248 246 244 243 241 241 240 240 239 238 237
314 313 313 312 311 309 306 303 301 298 296 293 290 288 285 281 279 276 274 272 268 264 262 259 257 257 255 254 254 253 250 248 245 244 243 243 242 241 241 240 240 239 238
317 315 313 312 310 308 305 302 299 297 295 292 289 286 284 281 278 276 273 273 270 267 262 260 257 255 253 252 252 251 248 245 243 242 242 242 242 241 241 241 240 240 239
317 315 314 313 311 309 307 304 301 299 296 293 290 286 283 281 278 275 272 270 268 267 264 261 258 255 252 251 250 250 248 246 245 244 243 243 242 242 243 243 242 241 240
317 316 315 313 311 310 308 305 301 299 296 292 289 286 283 281 278 273 272 269 266 265 264 261 258 255 253 252 252 252 250 249 247 246 245 244 244 244 244 243 243 242 241
319 317 316 315 313 311 309 306 303 300 297 294 290 287 284 280 275 276 273 270 266 264 262 261 258 256 254 253 253 252 251 250 248 247 247 246 246 246 245 244 243 242 242
321 319 318 316 314 313 311 308 305 302 299 295 292 288 284 280 276 274 271 269 267 265 261 260 258 256 254 253 252 251 251 250 249 248 248 247 247 246 245 245 243 242 241
321 320 319 318 316 314 312 309 306 304 301 297 294 290 286 282 278 274 271 268 265 263 263 260 257 255 253 252 251 251 250 250 249 248 248 248 246 245 244 243 243 242 241
323 322 321 319 317 315 313 311 309 306 303 299 296 292 288 284 280 276 272 269 266 263 259 259 258 254 253 251 250 249 250 250 249 248 247 246 246 245 245 244 243 243 242
324 324 323 322 320 319 316 314 312 309 306 302 298 294 289 285 282 277 273 269 267 264 260 258 255 255 251 249 249 249 249 250 249 248 248 246 246 245 244 243 243 243 242
326 325 325 324 323 321 318 316 314 311 308 305 300 295 290 285 281 277 273 270 267 264 261 258 255 252 251 248 249 249 249 249 249 249 247 246 244 244 245 244 244 243 243
327 327 327 326 324 323 321 319 316 313 311 308 303 299 293 287 282 277 272 268 266 263 260 259 256 252 250 248 248 248 248 248 248 249 249 248 247 246 246 245 245 245 244
329 329 329 328 327 325 323 322 320 317 314 311 307 302 296 290 284 278 273 268 265 262 260 258 256 253 250 248 247 246 247 248 249 249 249 249 248 247 247 246 245 245 244
331 331 331 330 329 328 327 325 324 321 318 315 311 305 299 293 287 281 274 268 264 261 259 257 256 254 250 246 243 244 244 246 250 250 249 249 248 248 247 246 246 245 244
332 332 332 332 331 331 330 329 328 325 322 319 315 310 303 296 290 284 277 270 264 260 257 256 255 253 250 243 240 241 244 245 250 252 250 248 249 247 245 244 243 242 242